Location: Boiro
(42.6475°N, 8.8834°W)
Time: 18:08:07
(UTC+01:00)

Explorer 7 - Pass Details

Date: 01 December 2021
Orbit: 483 x 674 km, 50.3° (Epoch: 26 January)

Event Time Altitude Azimuth Distance (km) Brightness Sun altitude
Rises 07:39:21 0° 218° (SW) 2,824 10.2 -12.0°
Reaches altitude 10° 07:41:47 10° 211° (SSW) 1,891 9.4 -11.6°
Maximum altitude 07:45:50 41° 141° (SE) 810 8.2 -10.9°
Drops below altitude 10° 07:49:40 10° 70° (ENE) 1,789 10.2 -10.2°
Sets 07:51:54 0° 64° (ENE) 2,651 11.0 -9.8°
